GW7959 Weather Reports


time (UTC)temp
C
wind
direction
speed
KPH
gust
KPH
rain 1hr
cm
rain 24hr
cm
rain mn
cm
humidity
%
barometer
mb
20260902073016 30 336 1.6 4.8 0.00 0.00 0.00 78 1015.7
20260902072515 30 336 1.6 4.8 0.00 0.00 0.00 78 1015.7
20260902072015 30 336 1.6 4.8 0.00 0.00 0.00 77 1015.7
20260902071514 30 336 1.6 4.8 0.00 0.00 0.00 77 1015.6
20260902071014 30 336 0.0 4.8 0.00 0.00 0.00 77 1015.6
20260902070514 30 336 3.2 6.4 0.00 0.00 0.00 77 1015.6
20260902070021 30 336 3.2 6.4 0.00 0.00 0.00 77 1015.7
20260902065513 29 336 1.6 4.8 0.00 0.00 0.00 77 1016.0
20260902065015 29 335 1.6 4.8 0.00 0.00 0.00 77 1016.0
20260902064514 29 335 3.2 4.8 0.00 0.00 0.00 77 1016.0
20260902064012 29 335 1.6 6.4 0.00 0.00 0.00 77 1015.9
20260902063513 29 335 3.2 8.0 0.00 0.00 0.00 77 1016.0
20260902063032 29 335 4.8 9.7 0.00 0.00 0.00 76 1016.0
20260902062512 29 336 3.2 6.4 0.00 0.00 0.00 76 1016.0
20260902062012 30 336 3.2 6.4 0.00 0.00 0.00 77 1016.1
20260902061512 30 303 1.6 4.8 0.00 0.00 0.00 77 1015.9
20260902061012 30 303 0.0 4.8 0.00 0.00 0.00 77 1016.0
20260902060512 30 303 0.0 6.4 0.00 0.00 0.00 77 1016.0
20260902060011 30 242 1.6 6.4 0.00 0.00 0.00 77 1015.9
20260902055511 30 240 1.6 6.4 0.00 0.00 0.00 77 1016.0
20260902055011 30 240 3.2 6.4 0.00 0.00 0.00 77 1016.0
20260902054513 30 242 1.6 9.7 0.00 0.00 0.00 77 1016.0
20260902054010 30 242 3.2 14.5 0.00 0.00 0.00 77 1016.1
20260902053511 30 152 4.8 17.7 0.00 0.00 0.00 78 1016.0
20260902053010 30 183 11.3 17.7 0.00 0.00 0.00 77 1016.0
20260902052509 30 150 9.7 16.1 0.00 0.00 0.00 77 1016.0
20260902052009 30 183 11.3 24.1 0.00 0.00 0.00 77 1016.1
20260902051509 30 186 11.3 24.1 0.00 0.00 0.00 77 1016.0
20260902051009 30 128 6.4 17.7 0.00 0.00 0.00 76 1016.0
20260902050511 30 187 8.0 17.7 0.00 0.00 0.00 76 1015.9
20260902050011 31 55 3.2 8.0 0.00 0.00 0.00 76 1015.9
20260902045508 31 104 3.2 9.7 0.00 0.00 0.00 76 1016.0
20260902045008 31 144 3.2 6.4 0.00 0.00 0.00 76 1016.0
20260902044508 31 89 1.6 9.7 0.00 0.00 0.00 75 1016.0
20260902044007 31 157 4.8 9.7 0.00 0.00 0.00 75 1015.9
20260902043507 31 71 3.2 6.4 0.00 0.00 0.00 74 1015.8
20260902043006 31 86 1.6 6.4 0.00 0.00 0.00 74 1016.0
20260902042508 31 135 1.6 6.4 0.00 0.00 0.00 74 1015.8
20260902042007 31 130 3.2 9.7 0.00 0.00 0.00 74 1015.8
20260902041506 31 130 3.2 9.7 0.00 0.00 0.00 74 1015.8
20260902041005 30 130 3.2 6.4 0.00 0.00 0.00 73 1015.7
20260902040505 30 131 3.2 9.7 0.00 0.00 0.00 73 1015.7
20260902040005 30 154 6.4 9.7 0.00 0.00 0.00 73 1015.7
20260902035503 30 132 3.2 6.4 0.00 0.00 0.00 75 1015.5
20260902035003 30 161 3.2 8.0 0.00 0.00 0.00 75 1015.4
20260902034503 30 122 3.2 6.4 0.00 0.00 0.00 76 1015.2
20260902034003 30 121 1.6 6.4 0.00 0.00 0.00 76 1015.2
20260902033502 30 100 1.6 6.4 0.00 0.00 0.00 77 1015.1
20260902033002 31 98 1.6 4.8 0.00 0.00 0.00 77 1015.1
20260902032502 30 94 0.0 6.4 0.00 0.00 0.00 77 1015.1
20260902032001 31 136 3.2 6.4 0.00 0.00 0.00 77 1014.9
20260902031508 31 99 1.6 6.4 0.00 0.00 0.00 76 1014.8
20260902031001 31 146 1.6 6.4 0.00 0.00 0.00 76 1014.7
20260902030505 31 146 3.2 6.4 0.00 0.00 0.00 76 1014.6
20260902030002 31 146 1.6 6.4 0.00 0.00 0.00 76 1014.6
20260902025501 31 145 3.2 6.4 0.00 0.00 0.00 76 1014.5
20260902025001 31 138 1.6 4.8 0.00 0.00 0.00 76 1014.4
20260902024500 31 140 1.6 4.8 0.00 0.00 0.00 76 1014.2
20260902024100 31 153 1.6 8.0 0.00 0.00 0.00 76 1014.1
20260902023559 30 159 1.6 8.0 0.00 0.00 0.00 76 1014.2
20260902023103 30 155 1.6 4.8 0.00 0.00 0.00 75 1014.0
20260902022602 30 155 1.6 8.0 0.00 0.00 0.00 75 1013.9
20260902022101 30 155 4.8 8.0 0.00 0.00 0.00 75 1013.9
20260902021601 31 141 4.8 9.7 0.00 0.00 0.00 75 1013.9
20260902021059 31 86 3.2 6.4 0.00 0.00 0.00 75 1013.7
20260902020600 31 150 3.2 9.7 0.00 0.00 0.00 75 1013.7
20260902015601 31 141 6.4 9.7 0.00 0.00 0.00 75 1013.7
20260902015059 31 98 1.6 9.7 0.00 0.00 0.00 75 1013.7
20260902014559 31 85 3.2 8.0 0.00 0.00 0.00 74 1013.7
20260902014057 31 190 3.2 8.0 0.00 0.00 0.00 74 1013.7
20260902013558 31 192 4.8 11.3 0.00 0.00 0.00 74 1013.6
20260902013158 31 144 3.2 11.3 0.00 0.00 0.00 74 1013.6
20260902012557 31 205 1.6 11.3 0.00 0.00 0.00 74 1013.7
20260902012057 31 142 3.2 11.3 0.00 0.00 0.00 74 1013.5
20260902011558 31 178 6.4 11.3 0.00 0.00 0.00 74 1013.5
20260902011058 31 189 6.4 9.7 0.00 0.00 0.00 74 1013.5
20260902010557 31 161 6.4 11.3 0.00 0.00 0.00 74 1013.6
20260902010100 31 142 4.8 14.5 0.00 0.00 0.00 74 1013.5
20260902005556 31 138 4.8 14.5 0.00 0.00 0.00 73 1013.6
20260902005057 31 203 6.4 11.3 0.00 0.00 0.00 74 1013.4
20260902004557 31 169 6.4 16.1 0.00 0.00 0.00 74 1013.3
20260902004056 31 131 8.0 16.1 0.00 0.00 0.00 73 1013.3
20260902003555 31 165 4.8 14.5 0.00 0.00 0.00 73 1013.2
20260902003056 31 126 6.4 14.5 0.00 0.00 0.00 73 1013.2
20260902002555 31 140 8.0 11.3 0.00 0.00 0.00 73 1013.1
20260902002055 31 131 3.2 14.5 0.00 0.00 0.00 72 1013.0
20260902001555 31 163 4.8 14.5 0.00 0.00 0.00 72 1013.0
20260902001054 31 162 4.8 12.9 0.00 0.00 0.00 72 1012.9
20260902000554 31 135 4.8 14.5 0.00 0.00 0.00 72 1012.9
20260902000054 31 150 4.8 12.9 0.00 0.00 0.00 71 1013.0
20260901235554 31 157 6.4 16.1 0.00 0.00 0.00 71 1012.8
20260901235055 32 131 12.9 16.1 0.00 0.00 0.00 69 1012.8
20260901234603 32 142 6.4 16.1 0.00 0.00 0.00 69 1012.8
20260901234055 32 123 6.4 16.1 0.00 0.00 0.00 69 1012.8
20260901233554 32 185 8.0 14.5 0.00 0.00 0.00 69 1012.8
20260901233053 32 170 11.3 17.7 0.00 0.00 0.00 69 1012.8
20260901232553 32 111 9.7 17.7 0.00 0.00 0.00 69 1012.5
20260901232057 32 128 8.0 17.7 0.00 0.00 0.00 67 1012.6
20260901231558 32 150 6.4 16.1 0.00 0.00 0.00 67 1012.6
20260901231052 32 153 6.4 16.1 0.00 0.00 0.00 66 1012.6
20260901230553 32 156 6.4 14.5 0.00 0.00 0.00 66 1012.6
20260901230105 32 124 8.0 16.1 0.00 0.00 0.00 66 1012.6
20260901225553 32 140 6.4 14.5 0.00 0.00 0.00 67 1012.4
20260901225052 32 139 8.0 14.5 0.00 0.00 0.00 69 1012.4
20260901224554 32 127 6.4 14.5 0.00 0.00 0.00 66 1012.4
20260901224054 32 171 6.4 14.5 0.00 0.00 0.00 67 1012.3
20260901223554 32 124 6.4 14.5 0.00 0.00 0.00 69 1012.4
20260901223050 32 125 9.7 14.5 0.00 0.00 0.00 68 1012.4
20260901222549 32 77 6.4 16.1 0.00 0.00 0.00 68 1012.4
20260901222050 32 148 8.0 17.7 0.00 0.00 0.00 70 1012.3
20260901221604 32 171 12.9 19.3 0.00 0.00 0.00 69 1012.5
20260901221048 32 163 8.0 19.3 0.00 0.00 0.00 71 1012.5
20260901220550 32 186 11.3 19.3 0.00 0.00 0.00 70 1012.5
20260901220047 32 179 6.4 17.7 0.00 0.00 0.00 71 1012.6
20260901215547 32 166 11.3 16.1 0.00 0.00 0.00 70 1012.6
20260901215046 32 163 8.0 17.7 0.00 0.00 0.00 71 1012.7
20260901214545 32 168 9.7 17.7 0.00 0.00 0.00 70 1012.8
20260901214044 32 126 6.4 17.7 0.00 0.00 0.00 71 1012.9
20260901213545 32 103 6.4 14.5 0.00 0.00 0.00 70 1012.9
20260901213044 32 80 4.8 17.7 0.00 0.00 0.00 71 1012.9
20260901212541 32 136 8.0 17.7 0.00 0.00 0.00 72 1013.1
20260901212041 32 144 6.4 14.5 0.00 0.00 0.00 73 1013.1
20260901211540 31 88 8.0 17.7 0.00 0.00 0.00 73 1013.1
20260901211039 31 148 8.0 19.3 0.00 0.00 0.00 73 1013.1
20260901210540 32 109 6.4 14.5 0.00 0.00 0.00 72 1013.1
20260901210038 32 141 6.4 14.5 0.00 0.00 0.00 71 1013.1
20260901205537 32 116 6.4 16.1 0.00 0.00 0.00 70 1013.3
20260901205036 32 61 8.0 16.1 0.00 0.00 0.00 70 1013.3
20260901204538 32 130 6.4 14.5 0.00 0.00 0.00 71 1013.3
20260901204033 32 85 6.4 17.7 0.00 0.00 0.00 72 1013.4
20260901203533 32 155 8.0 17.7 0.00 0.00 0.00 72 1013.6
20260901203033 32 164 8.0 17.7 0.00 0.00 0.00 72 1013.5
20260901202533 32 178 8.0 17.7 0.00 0.00 0.00 73 1013.7
20260901202034 32 112 8.0 17.7 0.00 0.00 0.00 72 1013.7
20260901201532 32 66 8.0 17.7 0.00 0.00 0.00 73 1013.8
20260901201032 32 136 9.7 17.7 0.00 0.00 0.00 73 1014.0
20260901200531 32 109 6.4 17.7 0.00 0.00 0.00 73 1013.9
20260901200032 32 135 9.7 20.9 0.00 0.00 0.00 72 1013.9
20260901195532 32 115 6.4 20.9 0.00 0.00 0.00 72 1014.0
20260901195031 32 89 8.0 14.5 0.00 0.00 0.00 72 1013.9
20260901194531 32 144 4.8 16.1 0.00 0.00 0.00 72 1014.1